Regional Weather Roundup
Issued by NWS Kansas City/Pleasant Hill, MO

Home | Current Version | Previous Version | Graphics & Text | Print | Product List | Glossary Off
Versions: 1 2 3 4 5 6 7 8 9 10 11 12 13 14 15 16 17 18 19 20 21 22 23 24 25 26 27

000
ASUS43 KEAX 190010
RWREAX

WEATHER ROUNDUP FOR EASTERN KANSAS AND NORTHWEST MISSOURI
NATIONAL WEATHER SERVICE KANSAS CITY/PLEASANT HILL MO
600 PM CST SAT FEB 18 2017

KSZ040-057-103>105-MOZ028-029-037-043-190100-
...KANSAS CITY METROPOLITAN AREA...

CITY           SKY/WX    TMP DP  RH WIND       PRES   REMARKS
K.C. INTL      PTCLDY    64  42  44 SW3       29.79R
6HR MIN TEMP:  63; 6HR MAX TEMP:  72;

K.C. DOWNTOWN  CLEAR     68  43  40 CALM      29.77R
6HR MIN TEMP:  64; 6HR MAX TEMP:  73;

LEES SUMMIT    CLEAR     68  43  40 CALM      29.79R
6HR MIN TEMP:  64; 6HR MAX TEMP:  71;

OLATHE - IXD   CLEAR     62  41  46 S5        29.79R
6HR MIN TEMP:  62; 6HR MAX TEMP:  72;

OLATHE - OJC   CLEAR     65  43  44 S3        29.78R
6HR MIN TEMP:  61; 6HR MAX TEMP:  70;

LAWRENCE       CLEAR     68  44  42 NE3       29.77R

$$

MOZ001>008-011>017-020>025-030>033-038>040-044>046-053-054-190100-
...NORTHERN AND CENTRAL MISSOURI...

CITY           SKY/WX    TMP DP  RH WIND       PRES   REMARKS
ST. JOSEPH     CLEAR     62  38  40 CALM      29.79R
6HR MIN TEMP:  61; 6HR MAX TEMP:  70;

WARRENSBURG    CLEAR     64  43  45 SW6       29.79R
WHITEMAN AFB   CLEAR     62  44  51 SW8       29.79R
6HR MIN TEMP:  62; 6HR MAX TEMP:  72;

CLINTON        CLEAR     64  46  52 S3        29.81R
SEDALIA        CLEAR     67  45  45 SW7       29.81R
6HR MIN TEMP:  64; 6HR MAX TEMP:  72;

WARSAW         NOT AVBL
CHILLICOTHE      N/A     64  39  39 NE3       29.79R
6HR MIN TEMP:  64; 6HR MAX TEMP:  73;

KIRKSVILLE     CLEAR     63  37  38 CALM      29.79S
6HR MIN TEMP:  62; 6HR MAX TEMP:  71;


$$

MOZ041-047>049-056>058-063>065-088>090-097-190100-
...EASTERN AND SOUTHERN MISSOURI...

CITY           SKY/WX    TMP DP  RH WIND       PRES   REMARKS
ST. LOUIS INTL CLOUDY    59  47  64 S6        29.83R
6HR MIN TEMP:  59; 6HR MAX TEMP:  63; 6HR PCP: TRACE;

SPIRIT OF STL  PTCLDY    59  50  72 S6        29.82R
COLUMBIA       CLEAR     66  45  46 W5        29.80R
JEFFERSON CITY CLEAR     68  44  42 SW3       29.79R
ROLLA          PTCLDY    57  47  69 S8        29.81R
OSAGE BEACH    CLEAR     67  46  47 SW3       29.82R
SPRINGFIELD    CLEAR     61  48  62 SW5       29.83R
BRANSON        PTCLDY    63  46  55 CALM      29.85R
JOPLIN         CLEAR     60  49  66 S3        29.83R
WEST PLAINS    CLOUDY    56  51  84 CALM      29.87R

$$

IAZ060-094-KSZ022-034>040-054-083-096-NEZ052-066-093-190100-
...KANSAS...SOUTHEAST NEBRASKA AND IOWA...

CITY           SKY/WX    TMP DP  RH WIND       PRES   REMARKS
TOPEKA         CLEAR     64  41  42 SE5       29.76R
6HR MIN TEMP:  63; 6HR MAX TEMP:  73;

MANHATTAN      CLEAR     68  43  40 CALM      29.74S
EMPORIA        CLEAR     66  41  40 S9        29.77R
CHANUTE        CLEAR     63  50  62 S9        29.81R
WICHITA        PTCLDY    63  46  54 S9        29.77R
OMAHA          MOCLDY    59  32  36 E7        29.78R
LINCOLN        CLEAR     60  30  32 SE7       29.79R
FALLS CITY     CLEAR     63  34  33 SE5       29.77S
LAMONI         CLEAR     63  30  28 CALM      29.79R
DES MOINES     PTCLDY    60  31  33 NW3       29.80R

$$





USA.gov is the U.S. government's official web portal to all federal, state and local government web resources and services.